Location: Moscow
(55.7500°N, 37.5830°E)
Time: 18:09:12
(UTC+03:00)

ISS - Pass Details

Date: 24 March 2026
Orbit: 416 x 425 km, 51.6° (Epoch: 19 April)

Event Time Altitude Azimuth Distance (km) Brightness Sun altitude
Rises 21:13:20 0° 272° (W) 2,387 1.0 -19.5°
Reaches altitude 10° 21:16:41 10° 237° (WSW) 1,514 -0.7 -19.8°
Maximum altitude 21:17:49 11° 217° (SW) 1,433 -1.1 -20.0°
Enters shadow 21:18:01 11° 213° (SSW) 1,435 -1.1 -20.0°
